[[{"header":{"parameterUnit":"m.s-1","parameterCategory":1,"la1":30.2991,"la2":30.254,"lo1":-89.0895,"lo2":-89.0444,"dy":0.0017,"dx":0.0017,"nx":28,"ny":28,"refTime":"2024-10-03T03:00:00:Z","depth":0,"parameterNumber":2,"parameterNumberName":"U-component_of_WINDS"},"data":[0,0,0,0,0,0,0,0,0,0,0,0,0,0,0,0,0,0,0,0,0,0,0,0,0,0,0,0,0,0,0,0,0,0,0,0,0,0,0,0,0,0,0,0,0,0,0,0,0,0,0,0,0,0,0,0,0,0,-1.8458,-1.8458,0,-1.8452,-1.8452,-1.8452,-1.835,-1.8347,-1.8345,-1.8342,-1.8337,-1.8339,-1.8341,0,0,0,0,0,0,0,0,0,0,0,0,0,-1.8381,-1.8383,-1.8458,-1.8458,-1.8458,-1.8452,-1.8452,-1.8452,-1.835,-1.8347,-1.8344,-1.8341,-1.8336,-1.8339,-1.8341,0,0,0,0,0,0,0,0,0,0,0,0,0,-1.8399,-1.8383,-1.8458,-1.8406,-1.8402,-1.8452,-1.8452,-1.8452,-1.8351,-1.8347,-1.8343,-1.8339,-1.8335,-1.8338,-1.8342,-1.8441,0,0,-1.8352,-1.8354,0,0,0,0,0,0,0,0,-1.8398,-1.8402,-1.8414,-1.841,-1.8405,-1.8398,-1.8423,-1.8448,-1.8352,-1.837,-1.8342,-1.8338,-1.836,-1.8361,-1.8369,-1.8441,-1.8441,-1.8353,-1.8355,-1.8356,-1.8357,0,0,0,0,0,0,0,-1.8397,-1.8401,-1.8455,-1.8414,-1.8409,-1.8383,-1.8382,-1.8427,-1.8387,-1.8368,-1.8361,-1.8362,-1.8357,-1.8366,-1.8368,-1.8441,-1.8353,-1.8356,-1.8358,-1.8359,-1.8596,-1.86,0,0,0,0,0,0,-1.8403,-1.8401,-1.8456,-1.8455,-1.8392,-1.8388,-1.8386,-1.8404,-1.8386,-1.838,-1.8365,-1.8357,-1.8362,-1.8364,-1.8367,-1.8484,-1.8356,-1.8359,-1.8361,-1.8592,-1.8597,-1.8601,0,0,0,0,0,0,-1.8401,-1.8408,-1.8456,-1.8426,-1.843,-1.8394,-1.8414,-1.8406,-1.8415,-1.8384,-1.8376,-1.8381,-1.8359,-1.8363,-1.8424,-1.8483,-1.8361,-1.8364,-1.8587,-1.8593,-1.8599,-1.8718,0,0,0,0,0,0,-1.84,-1.8409,-1.8446,-1.8428,-1.8432,-1.8513,-1.8418,-1.8409,-1.8421,-1.841,-1.8397,-1.8391,-1.8356,-1.842,-1.8428,-1.8485,-1.8367,-1.8581,-1.859,-1.8597,-1.8709,-1.8728,-1.8744,0,0,0,0,0,-1.8397,-1.848,-1.8448,-1.8456,-1.8478,-1.8517,-1.8519,-1.8477,-1.8426,-1.8463,-1.8444,-1.8392,-1.8474,-1.8427,-1.8435,-1.8494,-1.8577,-1.8587,-1.8596,-1.8701,-1.8724,-1.8744,0,0,0,0,0,0,-1.8506,-1.8476,-1.8441,-1.852,-1.8522,-1.8499,-1.8545,-1.8502,-1.8518,-1.8508,-1.8454,-1.8452,-1.8522,-1.8514,-1.8461,-1.859,-1.8517,-1.8529,-1.8594,-1.8615,-1.8633,-1.8634,-1.837,0,0,0,0,0,-1.8539,-1.8572,-1.8544,-1.8617,-1.8619,-1.8583,-1.8598,-1.8565,-1.8564,-1.8564,-1.8549,-1.855,-1.8576,-1.8595,-1.8617,-1.8706,-1.8703,-1.8751,-1.8769,-1.8783,-1.8795,-1.8843,-1.8865,-1.8633,-1.8632,-1.8632,0,0,-1.8608,-1.8596,-1.862,-1.8639,-1.8636,-1.8672,-1.8584,-1.8625,-1.8652,-1.857,-1.8628,-1.8617,-1.8615,-1.8691,-1.8724,-1.8686,-1.8858,-1.8796,-1.8807,-1.8811,-1.8855,-1.8877,-1.8897,-1.8639,-1.8638,-1.8637,0,0,-1.8752,-1.8746,-1.8806,-1.8805,-1.8802,-1.8777,-1.8792,-1.8776,-1.8765,-1.8822,-1.8762,-1.8793,-1.8839,-1.884,-1.8847,-1.8992,-1.8946,-1.9001,-1.9094,-1.9141,-1.9159,-1.9175,-1.9229,-1.9249,-1.9012,-1.9012,-1.9012,0,-1.8838,-1.8891,-1.8843,-1.8889,-1.8899,-1.8827,-1.8888,-1.8889,-1.8894,-1.8903,-1.886,-1.8917,-1.8911,-1.8987,-1.9023,-1.903,-1.9046,-1.9003,-1.916,-1.9176,-1.919,-1.9241,-1.9261,-1.9019,-1.9018,-1.9018,-1.9017,0,-1.8998,-1.9035,-1.9084,-1.9091,-1.9106,-1.916,-1.912,-1.9142,-1.9107,-1.9087,-1.9146,-1.9136,-1.9155,-1.917,-1.9137,-1.9243,-1.922,-1.917,-1.9095,-1.922,-1.9267,-1.9286,-1.9029,-1.9026,-1.9024,-1.9023,0,0,-1.9212,-1.9191,-1.921,-1.9213,-1.9204,-1.9232,-1.9282,-1.9301,-1.9322,-1.9327,-1.9369,-1.9409,-1.9363,-1.9371,-1.9337,-1.9379,-1.9497,-1.9324,-1.9323,-1.9358,-1.9614,-1.9654,-1.9677,-1.9465,-1.9468,-1.9471,-1.9615,0,-1.9353,-1.9438,-1.9396,-1.9487,-1.9521,-1.9453,-1.9496,-1.9496,-1.9478,-1.9505,-1.9485,-1.9516,-1.9451,-1.9456,-1.9494,-1.9475,-1.9548,-1.9463,-1.9505,-1.9507,-1.951,-1.9701,-1.9742,-1.9879,-1.9633,-1.9636,-1.9638,0,-1.9529,-1.9543,-1.9637,-1.9623,-1.9636,-1.9676,-1.9691,-1.9717,-1.9715,-1.9699,-1.9708,-1.9665,-1.9713,-1.9638,-1.9705,-1.9649,-1.9663,-1.9656,-1.966,-1.9664,-1.9582,-1.9712,-1.9921,-1.9943,-1.9666,-1.9664,-1.9662,0,-1.9679,-1.972,-1.9782,-1.9786,-1.977,-1.9801,-1.9796,-1.979,-1.9804,-1.9817,-1.9826,-1.9844,-1.9855,-1.987,-1.9833,-1.9781,-1.9906,-1.9827,-1.9895,-1.9897,-1.9927,-1.9926,-2.0143,-1.9932,-1.9932,-1.9932,-1.9931,0,-1.9842,-1.9903,-1.9849,-1.9888,-1.9954,-1.9905,-1.9972,-1.9959,-1.9955,-1.999,-1.9931,-1.9965,-1.9913,-1.9942,-1.9913,-1.9974,-1.9979,-1.9968,-1.996,-1.9975,-1.9977,-1.9985,-1.9975,-1.9937,-1.9936,-1.9935,-1.9934,0,-2.0021,-1.9987,-2.0051,-2.0031,-2.0027,-2.0077,-2.006,-2.0095,-2.0073,-2.0118,-2.0126,-2.0091,-2.0123,-2.0086,-2.0115,-2.0095,-2.0179,-2.0155,-2.018,-2.0174,-2.0245,-2.024,-2.0477,-2.0507,-2.0276,-2.0278,-2.028,0,-2.0129,-2.0174,-2.0159,-2.0178,-2.0177,-2.0209,-2.0223,-2.0177,-2.0194,-2.0196,-2.0231,-2.0258,-2.0277,-2.033,-2.0308,-2.0329,-2.0307,-2.0389,-2.031,-2.0324,-2.0311,-2.031,-2.0315,-2.0406,-2.0409,-2.0411,-2.0413,0,-2.0324,-2.0305,-2.0328,-2.0347,-2.0366,-2.0378,-2.0385,-2.0404,-2.0356,-2.0379,-2.041,-2.0425,-2.0454,-2.0482,-2.0497,-2.0491,-2.0446,-2.0438,-2.0455,-2.0472,-2.0485,-2.0481,-2.0226,-2.0433,-2.0431,-2.0429,-2.0428,-2.0428,-2.0472,-2.0509,-2.0505,-2.0533,-2.0534,-2.0543,-2.0575,-2.0557,-2.0582,-2.0602,-2.0573,-2.0613,-2.061,-2.0626,-2.0626,-2.0657,-2.0622,-2.0647,-2.0653,-2.0661,-2.0673,-2.0478,-2.0659,-2.0659,-2.0658,-2.0657,-2.0657,0,-2.0666,-2.0659,-2.0686,-2.0699,-2.0721,-2.0674,-2.068,-2.0702,-2.0738,-2.074,-2.0759,-2.0796,-2.0823,-2.0802,-2.0825,-2.0853,-2.0833,-2.0861,-2.086,-2.086,-2.0701,-2.0685,-2.0877,-2.0877,-2.0877,-2.0877,-2.0877,-2.0877,-2.0769,-2.0831,-2.0812,-2.0874,-2.0867,-2.0906,-2.0913,-2.0921,-2.0922,-2.0966,-2.0988,-2.0974,-2.0967,-2.0988,-2.1011,-2.1004,-2.1016,-2.1052,-2.1039,-2.0892,-2.087,-2.085,-2.0834,-2.1055,-2.1055,-2.1194,-2.1196,-2.1197]},{"header":{"parameterUnit":"m.s-1","parameterCategory":1,"la1":30.2991,"la2":30.254,"lo1":-89.0895,"lo2":-89.0444,"dy":0.0017,"dx":0.0017,"nx":28,"ny":28,"refTime":"2024-10-03T03:00:00:Z","depth":0,"parameterNumber":3,"parameterNumberName":"V-component_of_WINDS"},"data":[0,0,0,0,0,0,0,0,0,0,0,0,0,0,0,0,0,0,0,0,0,0,0,0,0,0,0,0,0,0,0,0,0,0,0,0,0,0,0,0,0,0,0,0,0,0,0,0,0,0,0,0,0,0,0,0,0,0,-2.0297,-2.0297,0,-2.0286,-2.0286,-2.0286,-2.0245,-2.0244,-2.0243,-2.0242,-2.0232,-2.0232,-2.0233,0,0,0,0,0,0,0,0,0,0,0,0,0,-2.0283,-2.0283,-2.0297,-2.0297,-2.0297,-2.0286,-2.0286,-2.0286,-2.0245,-2.0244,-2.0243,-2.0241,-2.0232,-2.0232,-2.0233,0,0,0,0,0,0,0,0,0,0,0,0,0,-2.0282,-2.0283,-2.0297,-2.0275,-2.0273,-2.0286,-2.0286,-2.0286,-2.0245,-2.0244,-2.0242,-2.0241,-2.0231,-2.0232,-2.0233,-2.0267,0,0,-2.0236,-2.0236,0,0,0,0,0,0,0,0,-2.0282,-2.0283,-2.0278,-2.0276,-2.0274,-2.0265,-2.0277,-2.028,-2.0245,-2.0256,-2.0242,-2.024,-2.0244,-2.0244,-2.0245,-2.0267,-2.0266,-2.0236,-2.0237,-2.0237,-2.0237,0,0,0,0,0,0,0,-2.0282,-2.0283,-2.0293,-2.0278,-2.0276,-2.0266,-2.0264,-2.0278,-2.0258,-2.0255,-2.0252,-2.0251,-2.0243,-2.0244,-2.0244,-2.0266,-2.0236,-2.0237,-2.0237,-2.0238,-2.0315,-2.0316,0,0,0,0,0,0,-2.0285,-2.0283,-2.0293,-2.0292,-2.0275,-2.0267,-2.0265,-2.027,-2.0258,-2.0255,-2.0252,-2.0249,-2.0243,-2.0243,-2.0244,-2.0283,-2.0237,-2.0238,-2.0238,-2.0314,-2.0315,-2.0317,0,0,0,0,0,0,-2.0285,-2.0287,-2.0293,-2.0287,-2.0287,-2.0269,-2.0274,-2.027,-2.0272,-2.0256,-2.0252,-2.0257,-2.0242,-2.0243,-2.0262,-2.0282,-2.0238,-2.0239,-2.0312,-2.0314,-2.0316,-2.0361,0,0,0,0,0,0,-2.0285,-2.0287,-2.0299,-2.0288,-2.0288,-2.0311,-2.0275,-2.0271,-2.0273,-2.0269,-2.026,-2.0257,-2.0241,-2.026,-2.0263,-2.0282,-2.024,-2.031,-2.0313,-2.0315,-2.0357,-2.0364,-2.037,0,0,0,0,0,-2.0285,-2.0313,-2.03,-2.0302,-2.0303,-2.0312,-2.0312,-2.0294,-2.0275,-2.0288,-2.0277,-2.0257,-2.0279,-2.0263,-2.0265,-2.0285,-2.0308,-2.0312,-2.0315,-2.0354,-2.0363,-2.037,0,0,0,0,0,0,-2.0328,-2.0311,-2.0297,-2.0322,-2.0319,-2.0305,-2.0321,-2.0303,-2.0306,-2.0302,-2.0279,-2.0277,-2.0299,-2.0294,-2.0276,-2.0317,-2.029,-2.0294,-2.032,-2.0327,-2.0334,-2.0334,-2.0241,0,0,0,0,0,-2.034,-2.0349,-2.0334,-2.0357,-2.0357,-2.0339,-2.0343,-2.0328,-2.0324,-2.0323,-2.0314,-2.0312,-2.0318,-2.0322,-2.0327,-2.0357,-2.0354,-2.0372,-2.0378,-2.0383,-2.0387,-2.0401,-2.0409,-2.0328,-2.0328,-2.0328,0,0,-2.0366,-2.0358,-2.0365,-2.0366,-2.0362,-2.0372,-2.0338,-2.035,-2.0357,-2.0325,-2.0342,-2.0336,-2.0331,-2.0355,-2.0365,-2.0351,-2.0408,-2.0387,-2.0392,-2.0392,-2.0405,-2.0413,-2.042,-2.033,-2.033,-2.033,0,0,-2.0418,-2.0413,-2.0431,-2.0428,-2.0422,-2.041,-2.0415,-2.0404,-2.0398,-2.0415,-2.0391,-2.0399,-2.0411,-2.0408,-2.0409,-2.046,-2.0441,-2.0462,-2.0495,-2.0509,-2.0516,-2.0521,-2.0539,-2.0545,-2.0466,-2.0466,-2.0466,0,-2.045,-2.0464,-2.0443,-2.0456,-2.0458,-2.0429,-2.0447,-2.0445,-2.0442,-2.0443,-2.0428,-2.0441,-2.0436,-2.0459,-2.0472,-2.0473,-2.0477,-2.0463,-2.0516,-2.0522,-2.0527,-2.0543,-2.055,-2.0468,-2.0468,-2.0468,-2.0468,0,-2.0504,-2.0514,-2.053,-2.0526,-2.0529,-2.0545,-2.0527,-2.0533,-2.0519,-2.0509,-2.0526,-2.0519,-2.0522,-2.0526,-2.0513,-2.0547,-2.0539,-2.0521,-2.0493,-2.0537,-2.0552,-2.0558,-2.0472,-2.0471,-2.047,-2.047,0,0,-2.0582,-2.0567,-2.0573,-2.0571,-2.0563,-2.057,-2.0585,-2.0587,-2.0592,-2.0591,-2.0603,-2.0613,-2.0596,-2.0596,-2.0582,-2.0595,-2.0635,-2.0575,-2.0574,-2.0586,-2.0672,-2.0685,-2.0693,-2.0623,-2.0624,-2.0625,-2.0672,0,-2.0631,-2.0654,-2.0636,-2.0664,-2.0672,-2.0645,-2.0658,-2.0654,-2.0645,-2.0651,-2.0642,-2.0649,-2.0626,-2.0626,-2.0638,-2.0628,-2.0652,-2.0624,-2.0633,-2.0634,-2.0634,-2.0701,-2.0715,-2.076,-2.0678,-2.0679,-2.068,0,-2.069,-2.0691,-2.0719,-2.0708,-2.0711,-2.0723,-2.0723,-2.073,-2.0725,-2.0718,-2.0718,-2.0701,-2.0715,-2.0689,-2.0707,-2.0689,-2.0692,-2.0688,-2.0689,-2.0688,-2.0659,-2.0702,-2.0774,-2.078,-2.0689,-2.0688,-2.0688,0,-2.0743,-2.0752,-2.0769,-2.0768,-2.0757,-2.0765,-2.0761,-2.0755,-2.0758,-2.0758,-2.076,-2.0762,-2.0764,-2.0766,-2.075,-2.0733,-2.0771,-2.0743,-2.0765,-2.0765,-2.0774,-2.0773,-2.0847,-2.0777,-2.0777,-2.0777,-2.0777,0,-2.0799,-2.0817,-2.0793,-2.0803,-2.0823,-2.0802,-2.0822,-2.0815,-2.081,-2.0818,-2.0796,-2.0805,-2.0783,-2.079,-2.0778,-2.0795,-2.0796,-2.079,-2.0786,-2.0792,-2.0792,-2.0792,-2.0789,-2.0779,-2.0778,-2.0778,-2.0777,0,-2.0861,-2.0846,-2.0863,-2.085,-2.0848,-2.0862,-2.0852,-2.0861,-2.0851,-2.0862,-2.0864,-2.0848,-2.0855,-2.0839,-2.0844,-2.0836,-2.086,-2.0852,-2.0861,-2.0858,-2.088,-2.0878,-2.0956,-2.0965,-2.0891,-2.0891,-2.0892,0,-2.0897,-2.091,-2.0899,-2.0903,-2.09,-2.0907,-2.0909,-2.089,-2.0893,-2.0889,-2.0899,-2.0904,-2.0906,-2.0919,-2.0908,-2.0911,-2.0902,-2.0929,-2.0903,-2.0907,-2.0902,-2.0901,-2.0902,-2.0935,-2.0936,-2.0936,-2.0937,0,-2.0962,-2.0954,-2.0958,-2.0959,-2.0963,-2.0963,-2.0961,-2.0966,-2.0946,-2.0951,-2.0957,-2.0959,-2.0964,-2.0969,-2.097,-2.0966,-2.0948,-2.0946,-2.0951,-2.0955,-2.096,-2.0957,-2.0875,-2.0944,-2.0943,-2.0942,-2.0942,-2.0942,-2.1012,-2.1022,-2.1015,-2.102,-2.1017,-2.1017,-2.1025,-2.1015,-2.102,-2.1022,-2.1011,-2.102,-2.1015,-2.1014,-2.1012,-2.1019,-2.1006,-2.1014,-2.1016,-2.1018,-2.1021,-2.096,-2.1019,-2.1019,-2.1019,-2.1018,-2.1018,0,-2.1075,-2.107,-2.1074,-2.1073,-2.1077,-2.106,-2.1058,-2.1062,-2.107,-2.1067,-2.107,-2.1078,-2.1082,-2.1072,-2.1075,-2.1083,-2.1075,-2.1084,-2.1083,-2.1082,-2.1032,-2.1027,-2.109,-2.109,-2.109,-2.109,-2.109,-2.109,-2.1108,-2.1124,-2.1115,-2.1129,-2.1124,-2.1132,-2.1132,-2.1131,-2.1128,-2.1138,-2.1141,-2.1134,-2.1128,-2.1131,-2.1135,-2.1131,-2.1133,-2.1146,-2.114,-2.1093,-2.1086,-2.1079,-2.1074,-2.1146,-2.1146,-2.1189,-2.1189,-2.1189]}]]